Back to catalog

CHEOPS

AliveScienceSSO
NORAD 44874·PAYLOAD·🇪🇺 EU

Launched Dec 18, 2019 from Guiana Space Centre

Loading…

Next Passes (next 24 hours)

TLE

FreshSource: Space-Track

Epoch: Sep 14, 2026, 11:14 UTC

1 44874U 19092B   26257.46810840  .00000212  00000-0  51575-4 0  9993
2 44874  98.1512  84.5034 0010574 173.0807 187.0542 14.62014018358945

Track CHEOPS in real time with AllMySat

Download on the App Store